Location: Alfortville
(48.8058°N, 2.4204°E)
Time: 04:52:32
(UTC+00:00)

USA 229 DEB - Pass Details

Date: 30 May 2022
Orbit: 934 x 1278 km, 63.4° (Epoch: 24 May)

Event Time Altitude Azimuth Distance (km) Brightness Sun altitude
Rises 01:43:45 0° 306° (NW) 4,049 6.8 -14.9°
Reaches altitude 10° 01:48:14 10° 281° (WNW) 3,151 6.0 -14.5°
Maximum altitude 01:51:23 13° 256° (WSW) 2,956 5.6 -14.2°
Enters shadow 01:53:08 12° 242° (WSW) 3,045 5.6 -14.1°
